www.pogodaiklimat.ru

Погода и климат >> Архив погоды >> Беларусь >> Новогрудок


ПОГОДА в Новогрудке

  • Прогноз погоды в Новогрудке
  • Монитор погоды в Новогрудке
  • Климат города

АРХИВ ПОГОДЫ в Новогрудке

Время (UTC), дата Ветер
(напр.,м/с)
 
Видим.   Явления Облачность Т
(С)
Тd
(С)
f
(%)
Тe
(С)
Тes
(С)
Комфортность P
(гПа)
Po
(гПа)
Тmin
(С)
Tmax
(С)
R
(мм)
R24
(мм)
S
(см)
09 14.11 ЮЗ 4 1700 м морось 10 баллов +0.6 +0.3 98 -5 -5 1017.0 982.0
12 14.11 З 1 10 км 10 баллов +1.4 -0.4 88 -0 -0 1019.0 984.0
15 14.11 Ю 2 8000 м дымка 10 баллов +1.2 +0.3 94 -2 -2 1020.0 985.0
18 14.11 ЮЗ 3 8000 м дымка 10 баллов +1.5 +0.6 94 -3 -3 1021.0 986.0 +1.8 0.7 2
21 14.11 ЮЗ 5 9000 м дымка 10 баллов +0.5 -0.9 90 -6 -6 1022.0 986.8
00 15.11 ЮЗ 3
{10}
9000 м дымка 10 баллов +0.4 -1.0 90 -4 -4 1021.0 985.8
03 15.11 Ю 3 8000 м дымка 10 баллов +0.1 -0.7 94 -5 -5 1021.0 985.8 0.0 2
06 15.11 ЮЗ 5 8000 м дымка 10 баллов +0.6 -0.8 90 -5 -5 1021.0 985.9 0.0 0.3 2
09 15.11 Ю 6
{10}
1800 м дымка 10 баллов +1.5 +0.9 96 -5 -5 1021.0 986.0
12 15.11 ЮЗ 4
{10}
6000 м дождь 10 баллов +3.5 +2.5 93 -1 -1 1022.0 987.2
15 15.11 ЮЗ 6
{10}
6000 м дождь 10 баллов +3.9 +2.9 93 -2 -2 1022.0 987.3
18 15.11 ЮЗ 4
{10}
6000 м дымка 10 баллов +3.9 +2.7 92 -1 -1 1022.0 987.3 +3.9 2
21 15.11 ЮЗ 5
{11}
6000 м дымка 10 баллов +4.2 +3.2 93 -1 -1 1023.0 988.3
00 16.11 ЮЗ 5
{10}
6000 м дымка 10 баллов +4.1 +3.1 93 -1 -1 1023.0 988.3
03 16.11 ЮЗ 5 6000 м дымка 10 баллов +4.1 +3.1 93 -1 -1 1024.0 989.2 +3.8
06 16.11 ЮЗ 3 5000 м ливневой дождь 10 баллов +4.0 +3.3 95 0 0 1025.0 990.2 +3.8 0.3
09 16.11 ЮЗ 3 7000 м дымка 10 баллов +4.6 +3.4 92 +1 +1 1026.0 991.2
12 16.11 З 4 8000 м дымка 10 баллов +5.2 +3.1 86 +1 +1 1026.0 991.3
15 16.11 ЮЗ 2 8000 м дымка 10 баллов +4.5 +3.0 90 +2 +2 1026.0 991.2
18 16.11 ЮЗ 2 3500 м дымка 10 баллов +4.1 +3.1 93 +1 +1 1026.0 991.2 +5.4
21 16.11 ЮЗ 2 4000 м дымка 10 баллов +3.6 +2.9 95 +1 +1 1026.0 991.1
00 17.11 Ю 2 6000 м дымка 10 баллов +2.7 +1.4 91 -1 -1 1025.0 990.0
03 17.11 Ю 3 3500 м дымка 10 баллов +2.6 +1.7 94 -2 -2 1024.0 989.0 +1.9
06 17.11 Ю 3 7000 м дымка 10 баллов +2.3 +1.3 93 -2 -2 1023.0 988.0 +1.6
09 17.11 Ю 4 10 км 10 баллов +2.9 +0.5 84 -2 -2 1022.0 987.1
12 17.11 ЮЗ 4 10 км 10 баллов +3.3 +1.2 86 -1 -1 1020.0 985.3
15 17.11 ЮЗ 4 9000 м дождь 10 баллов +2.7 +1.1 89 -2 -2 1020.0 985.2
18 17.11 ЮЗ 4 8000 м дождь 10 баллов +2.6 +1.3 91 -2 -2 1020.0 985.2 +3.3 0.3
21 17.11 З 3 5000 м дымка 10 баллов +2.5 +1.9 96 -2 -2 1020.0 985.2
00 18.11 ЮЗ 3 4500 м дымка 10 баллов +1.8 +1.2 96 -3 -3 1020.0 985.1
03 18.11 ЮЗ 4 1600 м дымка 10 баллов +0.9 +0.3 96 -5 -5 1019.0 984.0 +0.7
06 18.11 ЮЗ 2 3800 м туман 10 баллов +1.4 +0.8 96 -2 -2 1019.0 984.1 +0.7 0.3
09 18.11 Ю 4 8000 м дымка 10 баллов +1.5 -0.3 88 -4 -4 1018.0 983.1
12 18.11 Ю 4 10 км 3 балла +3.8 -0.2 75 -1 0 1015.0 980.5
15 18.11 Ю 4 10 км 10 баллов +1.5 -0.3 88 -4 -4 1014.0 979.2
18 18.11 Ю 4 9000 м 10 баллов +1.0 -0.5 90 -4 -4 1013.0 978.2 +3.8
21 18.11 Ю 4 8000 м дымка 10 баллов 0.0 -0.8 94 -6 -6 1011.0 976.1
00 19.11 Ю 4 6000 м дымка 10 баллов -0.4 -1.2 94 -6 -6 1009.0 974.2
03 19.11 Ю 5 6000 м дымка 10 баллов -0.6 -1.4 94 -7 -7 1006.0 971.2 -0.8
06 19.11 Ю 4 4200 м 10 баллов +0.2 -0.7 94 -5 -5 1004.0 969.4 -0.8 0.3
09 19.11 ЮЗ 3 3200 м 10 баллов +0.4 -0.5 94 -4 -4 1004.0 969.4
12 19.11 ЮЗ 4 7000 м 10 баллов +0.9 -0.3 92 -4 -4 1004.0 969.5
15 19.11 ЮЗ 4 5000 м 10 баллов +1.5 +0.3 92 -4 -4 1004.0 969.6
18 19.11 Ю 4 7000 м дождь 10 баллов +1.5 +0.3 92 -4 -4 1005.0 970.5 +1.7 3
21 19.11 Ю 4 7000 м 10 баллов +1.6 +0.4 92 -4 -4 1005.0 970.6
00 20.11 Ю 4 9000 м дымка 10 баллов +1.5 -0.3 88 -4 -4 1004.0 969.6
03 20.11 Ю 5 7000 м 10 баллов +1.2 -1.0 85 -5 -5 1004.0 969.5 +1.1
06 20.11 Ю 4 5000 м дымка 10 баллов +0.7 -0.4 92 -5 -5 1005.0 970.4 +0.6
09 20.11 Ю 3 8000 м дымка 10 баллов +1.3 -0.5 88 -3 -3 1006.0 971.5
12 20.11 Ю 2 10 км 10 баллов +1.7 -0.5 85 -2 -2 1006.0 971.5
15 20.11 Ю 2 8000 м дымка 10 баллов +1.0 -0.2 92 -3 -3 1007.0 972.4
18 20.11 Ю 2 1700 м дымка 10 баллов +0.1 -0.5 96 -4 -4 1007.0 972.3 +2.0
21 20.11 ЮЗ 3 3000 м дымка 10 баллов +0.2 -0.4 96 -5 -5 1007.0 972.3
00 21.11 ЮЗ 3 3000 м туман 10 баллов 0.0 -0.3 98 -5 -5 1008.0 973.3
03 21.11 З 3 3500 м дымка 10 баллов 0.0 -0.8 94 -5 -5 1008.0 973.2 -0.5

 

Местоположение метеостанции Новогрудок (Гродненская область, Беларусь): широта 53.60 долгота 25.85 высота над уровнем моря 280 м.

В архиве по умолчанию представлена погода в Новогрудке за последнюю неделю. Архивные данные за месяц целиком и за предыдущие месяцы, начиная с января 2011 года, Вы можете получить, выбрав интересующий диапазон дат из раскрывающегося списка и нажав кнопку "Ввод!".

Внимание! Время в таблицах - всемирное. Для получения местного времени необходимо прибавить поправку, которая в Новогрудке равна 3 ч.

Смотрите также архив погоды в соседних городах и на ближайших метеорологических станциях:

Погода в Лиде (Гродненская область, Беларусь) (48 км)
Погода в Барановичах (Брестская область, Беларусь) (53 км)
Погода в Столбцах (Минская область, Беларусь) (60 км)
Погода в Воложине (Минская область, Беларусь) (70 км)
Погода в Ошмянах (Гродненская область, Беларусь) (92 км)
Погода в Ганцевичах (Брестская область, Беларусь) (102 км)
Погода в Волковыске (Гродненская область, Беларусь) (104 км)
Погода в Ивацевичах (Брестская область, Беларусь) (105 км)
Погода в Гродно (Гродненская область, Беларусь) (119 км)
Погода в Vilnius (Литва) (120 км)

Пояснения к столбцам:

Ветер - указаны скорость ветра в м/с - средняя за 10 мин, порывы в срок и между сроками (в фигурных скобках) и направление, откуда дует ветер: С - северный, СВ - северо-восточный, В - восточный, ЮВ - юго-восточный, Ю - южный, ЮЗ - юго-западный, З - западный, СЗ - северо-западный.
Видимость - горизонтальная дальность видимости в метрах или километрах. При видимости от 1 до 10 км при отсутствии осадков обычно наблюдается дымка, при ухудшении видимости до 1 км и менее - туман. В сухую погоду видимость может ухудшаться дымом, пылью или мглою.
Явления - указаны атмосферные явления, наблюдавшиеся в срок или в последний час перед сроком; фигурными скобками обозначены явления, наблюдавшиеся между сроками (за 1-3 часа до срока); квадратными скобками обозначены град или гололедные отложения с указанием их диаметра в мм.
Облачность - указаны через наклонную черту общая и нижняя облачность в баллах и высота нижней границы облаков в метрах; квадратными скобками обозначены формы облаков: Ci - перистые, Cs - перисто-слоистые, Cc - перисто-кучевые, Ac - высококучевые, As - высокослоистые, Sc - слоисто-кучевые, Ns - слоисто-дождевые, Cu - кучевые, Cb - кучево-дождевые. Подробнее классификацию облаков см. в Атласе облаков (PDF).
T - Температура воздуха - температура, измеренная на высоте 2 м над землей.
Td - Температура точки росы - температура, при понижении до которой содержащийся в воздухе водяной пар достигнет насыщения.
f - Относительная влажность воздуха - влажноcть воздуха, измеренная на высоте 2 м над землей.
Te - Эффективная температура - температура, которую ощущает одетый по сезону человек в тени. Характеристика душности погоды. При расчете учитывается влияние влажности воздуха и скорости ветра на теплоощущения человека.
Tes - Эффективная температура на солнце - температура, которую ощущает человек, с поправкой на солнечный нагрев. Характеристика знойности погоды. Зависит от высоты солнца над горизонтом, облачности и скорости ветра. Ночью, в пасмурную погоду, а также при ветре 12 м/с и более поправка равна нулю.
P - Атмосферное давление - приведенное к уровню моря атмосферное давление.
Po - Атмосферное давление - измеренное на уровне метеостанции атмосферное давление.
Tmin - Минимальная температура - минимум температуры воздуха на высоте 2 м над землей.
Tmax - Максимальная температура - максимум температуры воздуха на высоте 2 м над землей.
R - Количество осадков - Количество выпавших осадков за период времени, мм. При наведении курсора мыши на число - период времени, за который выпало указанное количество осадков.
R24 - Количество осадков - Количество выпавших осадков за 24 часа, мм.
S - Снежный покров - Высота снежного покрова, см. При наведении курсора мыши на число - состояние снежного покрова и степень покрытия местности в баллах.